This demonstration page uses our WeatherBlox Daily Observations layout. Learn more.

Left ArrowRight Arrow

40.97296, -117.73568

Hourly Observations for January 6, 2022

Temp ( °F °C ) Dew Point ( °F °C ) Humidity (%) Winds ( mph kmh ) Pressure ( in mb ) Visibility ( mi km ) Precip ( " mm )
12:56 am 00:56 Cloudy 43 6.1 36 2.2 76 76 S 13 20 30.08 1019 10 16 0.00 0.00
1:56 am 01:56 Partly Cloudy 43 6.1 35 1.7 74 74 S 10 17 30.06 1018 10 16 0.00 0.00
2:56 am 02:56 Cloudy 42 5.6 35 1.7 76 76 SSW 8 13 30.06 1018 10 16 0.00 0.00
3:56 am 03:56 Cloudy 43 6.1 35 1.7 74 74 S 7 11 30.07 1018 10 16 0.00 0.00
4:56 am 04:56 Cloudy 43 6.1 35 1.7 74 74 S 12 19 30.06 1018 10 16 0.00 0.00
5:56 am 05:56 Cloudy 43 6.1 36 2.2 76 76 S 10 17 30.06 1018 10 16 0.00 0.00
6:56 am 06:56 Partly Cloudy 42 5.6 35 1.7 76 76 S 14 22 30.05 1018 10 16 0.00 0.00
7:56 am 07:56 Partly Cloudy 43 6.1 35 1.7 74 74 S 14 22 30.04 1017 10 16 0.00 0.00
8:56 am 08:56 Mostly Sunny 45 7.2 36 2.2 71 71 S 12 19 30.04 1017 10 16 0.00 0.00
9:56 am 09:56 Mostly Cloudy 47 8.3 37 2.8 69 69 S 13 20 30.04 1017 10 16 0.00 0.00
10:56 am 10:56 Mostly Sunny 52 11.1 39 3.9 61 61 S 13 20 30.01 1016 10 16 0.00 0.00
11:56 am 11:56 Sunny 53 11.7 40 4.4 61 61 S 16 26 29.96 1015 10 16 0.00 0.00
12:56 pm 12:56 Sunny 56 13.3 40 4.4 55 55 SSW 10 17 29.92 1013 10 16 0.00 0.00
1:56 pm 13:56 Sunny 56 13.3 39 3.9 53 53 SW 10 17 29.90 1012 10 16 0.00 0.00
2:56 pm 14:56 Sunny 56 13.3 38 3.3 51 51 SSW 12 19 29.89 1012 10 16 0.00 0.00
3:56 pm 15:56 Sunny 54 12.2 37 2.8 53 53 S 9 15 29.88 1012 10 16 0.00 0.00
4:56 pm 16:56 Clear 46 7.8 35 1.7 66 66 S 9 15 29.88 1012 10 16 0.00 0.00
5:56 pm 17:56 Clear 44 6.7 35 1.7 71 71 S 9 15 29.88 1012 10 16 0.00 0.00
6:56 pm 18:56 Clear 44 6.7 34 1.1 68 68 S 12 19 29.87 1012 10 16 0.00 0.00
7:56 pm 19:56 Clear 43 6.1 33 0.6 68 68 S 14 22 29.85 1011 10 16 0.00 0.00
11:56 pm 23:56 Clear 45 7.2 33 0.6 63 63 S 16 26 29.72 1006 10 16 0.00 0.00

Powered by AerisWeather